Weather in Vilovatoye

Russia / Samara Oblast     53°01′44″N   51°26′48″E
temp.,
°C
wind,
m/s
gust,
m/s
humid.,
%
clouds,
%
prec.,
mm/h
press.,
hPa
HPBL,
m
7 march, sun
sun701:00−12nne2286100 0.0 101321
04:00−14nne2284100 0.0 101220
07:00−17nw11845 0.0 101220
10:00−13wsw22842 0.0 101398
13:00−9wsw358645 0.0 1013314
16:00−8sw479159 0.1 1012394
19:00−12ssw479699 0.0 1012134
22:00−10ssw6129295 0.1 1011350
8 march, mon
mon801:00−8ssw91692100 0.3 1007587
04:00−5ssw101888100 0.9 1004902
07:00−4sw111891100 0.5 10011032
10:00−3sw111788100 1.4 10021252
13:00−1wsw91473100 0.7 10041552
16:00−3wsw7137784 0.8 1005920
19:00−6sw4785100 0.0 1006111
22:00−4sw3497100 0.3 1006107
9 march, tue
tue901:00−4sw1297100 0.9 100446
04:00−4sw51194100 1.1 1004412
07:00−9wsw5119482 0.1 1006240
10:00−9wsw489178 0.1 1008279
13:00−7wnw2386100 0.0 1009325
16:00−6nw238895 0.0 1009374
19:00−9nnw3393100 0.0 100947
22:00−12nw3492100 0.0 101067
10 march, wed
wed1001:00−16nw349799 0.0 101155
04:00−17wnw349797 0.0 101253
07:00−18wnw3498100 0.0 101278
10:00−15nw4793100 0.1 1014366
13:00−15nw5792100 0.0 1015397
16:00−15nw5790100 0.1 1016505
19:00−18nw4896100 0.0 1018203
22:00−20nw489798 0.1 1020207
11 march, thu
thu1101:00−24nw369785 0.0 102188
04:00−27nw349780 0.0 102359
07:00−29wnw339722 0.0 102428
10:00−25wnw349513 0.0 1026194
13:00−20wsw459155 0.0 1026328
16:00−18wsw599139 0.0 1025378
19:00−19wsw499681 0.1 1026292
22:00−18wsw479790 0.1 1027143